Home > Weather > Enugu > Past weeks

Flag for Nigeria Past Weather in Enugu, Nigeria — Yesterday and Last 2 Weeks

Now
81 °F

Passing clouds.


Feels Like: 85 °F
Forecast: 73 / 83 °F
Wind: 5 mph from Southwest

Location: Malabo/Fernando Poo

Current Time: Aug 26, 2016 at 11:34:06 AM

Latest Report: Aug 26, 2016 at 11:00 AM


Visibility: N/A

Pressure: 29.95 "Hg

Humidity: 79%

Dew Point: 73 °F

Location of EnuguLocation

Past Weather in Enugu — Graph

°F

Enugu Temperature Yesterday

Maximum temperature yesterday: 82 °F (at 3:00 PM)
Minimum temperature yesterday: 73 °F (at 6:00 AM)
Average temperature yesterday: 77 °F

High & Low Weather Summary for the Past Weeks

 TemperatureHumidityPressure
High86 °F (Aug 11, 12:00 PM)94% (Aug 11, 7:00 PM)30.01 "Hg (Aug 11, 7:00 PM)
Low72 °F (Aug 18, 1:00 AM)66% (Aug 11, 10:00 AM)29.86 "Hg (Aug 13, 5:00 PM)
Average77 °F87%29.94 "Hg
* Reported Aug 11 10:00 AM — Aug 26 10:00 AM, Enugu, Weather by CustomWeather, © 2016

Note: Actual official high and low records may vary slightly from our data, if they occured in-between our weather recording intervals... More about our weather records

Advertising

Enugu Weather History for the Previous 24 Hours

Scroll right to see more
 ConditionsComfort  
Time TempWeatherWind HumidityBarometerVisibility
10:00 AM
Fri, Aug 26
79 °FPassing clouds.8 mph84%29.95 "HgN/A
9:00 AM77 °FPassing clouds.3 mph89%29.98 "HgN/A
8:00 AM75 °FPassing clouds.2 mph89%29.95 "HgN/A
7:00 AM73 °FPassing clouds.5 mph94%29.95 "HgN/A
6:00 AM73 °FPassing clouds.No wind89%29.92 "HgN/A
5:00 AM73 °FPassing clouds.No wind94%29.92 "HgN/A
4:00 AM73 °FLight rain. Partly cloudy.3 mph94%29.89 "Hg5 mi
3:00 AM73 °FLight rain. Partly cloudy.3 mph89%29.89 "Hg5 mi
2:00 AM73 °FPartly cloudy.6 mph94%29.92 "Hg4 mi
1:00 AM73 °FPassing clouds.3 mph94%29.95 "Hg2 mi
12:00 AM75 °FPartly cloudy.No wind89%29.95 "Hg4 mi
11:00 PM
Thu, Aug 25
75 °FPartly cloudy.6 mph94%29.98 "Hg4 mi
10:00 PM77 °FPartly cloudy.6 mph89%29.95 "Hg4 mi
9:00 PM77 °FPassing clouds.7 mph89%29.95 "Hg4 mi
8:00 PM77 °FPassing clouds.5 mph89%29.92 "HgN/A
7:00 PM77 °FPassing clouds.3 mph89%29.89 "HgN/A
6:00 PM79 °FPartly sunny.8 mph84%29.89 "HgN/A
5:00 PM81 °FPartly sunny.10 mph79%29.86 "HgN/A
4:00 PM81 °FScattered clouds.12 mph79%29.86 "HgN/A
3:00 PM82 °FPartly sunny.8 mph74%29.86 "HgN/A
2:00 PM81 °FBroken clouds.7 mph79%29.89 "HgN/A
1:00 PM79 °FBroken clouds.9 mph84%29.95 "HgN/A
12:00 PM79 °FPartly sunny.6 mph84%29.95 "HgN/A
11:00 AM77 °FPartly sunny.6 mph94%29.98 "HgN/A
Weather by CustomWeather, © 2016

See weather overviewHow to use our weather pages